Schneifelwetter: Wetterstation Hallschlag, 537 m . NN
Wetterdaten: Freitag, 31.10.2008
Datum Zeit Temp. A. Temp. 2 Feuchte A. Luftdruck Regen Wind Richtung Richtung Sonnenschein Helligkeit T Regen Taupunkt Windchill
31.10.2008 00:00 0,9 C 1,0 C 97 % 998 hPa 0,3 l/m 9,1 km/h (2 Bft) NO22.5 50 0 min 0 lux 15,00 min 0,5 C -1,7 C
31.10.2008 00:15 0,9 C 1,0 C 97 % 998 hPa 0,0 l/m 5,2 km/h (1 Bft) O 80 0 min 0 lux 0,00 min 0,5 C 0,9 C
31.10.2008 00:30 1,0 C 1,0 C 97 % 998 hPa 0,0 l/m 4,2 km/h (1 Bft) O-SO22.5 105 0 min 0 lux 0,00 min 0,6 C 1,0 C
31.10.2008 00:45 1,1 C 1,1 C 97 % 998 hPa 0,0 l/m 5,0 km/h (1 Bft) O-NO 75 0 min 0 lux 0,00 min 0,7 C 1,1 C
31.10.2008 01:00 1,2 C 1,0 C 97 % 998 hPa 0,0 l/m 6,1 km/h (2 Bft) O-NO22.5 65 0 min 0 lux 0,00 min 0,8 C 1,2 C
31.10.2008 01:15 1,1 C 0,8 C 97 % 998 hPa 0,0 l/m 9,8 km/h (2 Bft) O-SO45 105 0 min 0 lux 0,00 min 0,7 C -2,1 C
31.10.2008 01:30 1,1 C 0,8 C 97 % 998 hPa 0,0 l/m 9,1 km/h (2 Bft) O-SO22.5 120 0 min 0 lux 0,00 min 0,7 C -1,5 C
31.10.2008 01:45 1,1 C 0,7 C 97 % 998 hPa 0,0 l/m 7,6 km/h (2 Bft) SO 140 0 min 0 lux 0,00 min 0,7 C -0,1 C
31.10.2008 02:00 1,1 C 0,7 C 97 % 999 hPa 0,0 l/m 13,3 km/h (3 Bft) O-SO22.5 105 0 min 0 lux 0,00 min 0,7 C -4,6 C
31.10.2008 02:15 1,1 C 0,7 C 97 % 999 hPa 0,0 l/m 9,8 km/h (2 Bft) O-SO45 110 0 min 0 lux 0,00 min 0,7 C -2,1 C
31.10.2008 02:30 1,1 C 0,8 C 97 % 999 hPa 0,0 l/m 10,6 km/h (2 Bft) O-SO22.5 120 0 min 0 lux 0,00 min 0,7 C -2,7 C
31.10.2008 02:45 1,2 C 0,8 C 97 % 999 hPa 0,0 l/m 11,0 km/h (2 Bft) SO22.5 125 0 min 0 lux 0,00 min 0,8 C -2,9 C
31.10.2008 03:00 1,2 C 0,9 C 97 % 999 hPa 0,0 l/m 9,8 km/h (2 Bft) SO22.5 140 0 min 0 lux 0,00 min 0,8 C -2,0 C
31.10.2008 03:15 1,2 C 1,0 C 97 % 999 hPa 0,0 l/m 14,0 km/h (3 Bft) SO22.5 140 0 min 0 lux 0,00 min 0,8 C -4,9 C
31.10.2008 03:30 1,2 C 1,0 C 97 % 999 hPa 0,0 l/m 13,2 km/h (3 Bft) SO22.5 140 0 min 0 lux 0,00 min 0,8 C -4,4 C
31.10.2008 03:45 1,2 C 1,0 C 97 % 999 hPa 0,0 l/m 13,4 km/h (3 Bft) SO22.5 140 0 min 0 lux 0,00 min 0,8 C -4,6 C
31.10.2008 04:00 1,2 C 1,0 C 97 % 999 hPa 0,0 l/m 9,0 km/h (2 Bft) SO22.5 140 0 min 0 lux 0,00 min 0,8 C -1,3 C
31.10.2008 04:15 1,2 C 1,1 C 97 % 999 hPa 0,0 l/m 9,4 km/h (2 Bft) O-SO45 115 0 min 0 lux 0,00 min 0,8 C -1,6 C
31.10.2008 04:30 1,3 C 1,1 C 97 % 999 hPa 0,0 l/m 7,8 km/h (2 Bft) O22.5 95 0 min 0 lux 0,00 min 0,9 C -0,1 C
31.10.2008 04:45 1,2 C 1,2 C 97 % 999 hPa 0,0 l/m 7,9 km/h (2 Bft) O-NO 60 0 min 0 lux 0,00 min 0,8 C -0,3 C
31.10.2008 05:00 1,2 C 1,2 C 97 % 999 hPa 0,0 l/m 8,7 km/h (2 Bft) O 85 0 min 0 lux 0,00 min 0,8 C -1,0 C
31.10.2008 05:15 1,3 C 1,2 C 97 % 999 hPa 0,0 l/m 8,9 km/h (2 Bft) O45 95 0 min 0 lux 0,00 min 0,9 C -1,1 C
31.10.2008 05:30 1,2 C 1,2 C 97 % 999 hPa 0,0 l/m 8,3 km/h (2 Bft) O-NO22.5 60 0 min 0 lux 0,00 min 0,8 C -0,7 C
31.10.2008 05:45 1,3 C 1,2 C 97 % 999 hPa 0,0 l/m 8,6 km/h (2 Bft) O-NO22.5 60 0 min 0 lux 0,00 min 0,9 C -0,8 C
31.10.2008 06:00 1,3 C 1,3 C 97 % 999 hPa 0,0 l/m 8,1 km/h (2 Bft) O22.5 85 0 min 0 lux 0,00 min 0,9 C -0,4 C
31.10.2008 06:15 1,3 C 1,3 C 97 % 999 hPa 0,0 l/m 8,7 km/h (2 Bft) O-SO22.5 115 0 min 0 lux 0,00 min 0,9 C -0,9 C
31.10.2008 06:30 1,2 C 1,1 C 97 % 999 hPa 0,3 l/m 8,5 km/h (2 Bft) SO45 125 0 min 0 lux 15,00 min 0,8 C -0,8 C
31.10.2008 06:45 1,0 C 0,7 C 97 % 999 hPa 0,3 l/m 2,2 km/h (1 Bft) O 80 0 min 0 lux 15,00 min 0,6 C 1,0 C
31.10.2008 07:00 0,7 C 0,4 C 97 % 1000 hPa 0,0 l/m 5,3 km/h (1 Bft) O-NO22.5 60 0 min 0 lux 0,00 min 0,3 C 0,7 C
31.10.2008 07:14 0,4 C 0,2 C 97 % 1000 hPa 0,0 l/m 5,4 km/h (1 Bft) O-NO 60 0 min 0 lux 0,00 min -0,0 C 0,4 C
31.10.2008 07:29 0,2 C 0,1 C 98 % 1000 hPa 0,3 l/m 6,8 km/h (2 Bft) NO 35 0 min 407 lux 15,00 min -0,1 C -0,2 C
31.10.2008 07:44 0,1 C 0,0 C 98 % 1000 hPa 0,0 l/m 4,9 km/h (1 Bft) NO22.5 45 0 min 652 lux 0,00 min -0,2 C 0,1 C
31.10.2008 08:00 0,1 C 0,0 C 98 % 1000 hPa 0,0 l/m 11,3 km/h (2 Bft) N-NO 30 0 min 1,08 klux 0,00 min -0,2 C -4,4 C
31.10.2008 08:15 0,1 C 0,0 C 99 % 1000 hPa 0,3 l/m 6,9 km/h (2 Bft) NO22.5 50 0 min 1,75 klux 15,00 min -0,0 C -0,4 C
31.10.2008 08:30 0,2 C 0,1 C 99 % 1000 hPa 0,0 l/m 8,7 km/h (2 Bft) NO22.5 40 0 min 2,29 klux 0,00 min 0,1 C -2,1 C
31.10.2008 08:45 0,3 C 0,2 C 99 % 1000 hPa 0,0 l/m 5,9 km/h (2 Bft) NO 50 0 min 2,65 klux 0,00 min 0,2 C 0,3 C
31.10.2008 08:59 0,3 C 0,3 C 99 % 1001 hPa 0,3 l/m 6,9 km/h (2 Bft) NO22.5 55 0 min 3,92 klux 14,00 min 0,2 C -0,2 C
31.10.2008 09:14 0,4 C 0,5 C 99 % 1001 hPa 0,0 l/m 10,3 km/h (2 Bft) N-NO 25 0 min 5,02 klux 0,00 min 0,3 C -3,3 C
31.10.2008 09:29 0,5 C 0,6 C 99 % 1001 hPa 0,0 l/m 7,4 km/h (2 Bft) NO 35 0 min 5,05 klux 0,00 min 0,4 C -0,5 C
31.10.2008 09:44 0,8 C 0,8 C 99 % 1001 hPa 0,0 l/m 5,2 km/h (1 Bft) NO 55 0 min 6,93 klux 0,00 min 0,7 C 0,8 C
31.10.2008 10:00 1,0 C 1,1 C 99 % 1001 hPa 0,0 l/m 5,4 km/h (1 Bft) NO 45 0 min 6,01 klux 0,00 min 0,9 C 1,0 C
31.10.2008 10:15 1,0 C 1,3 C 99 % 1001 hPa 0,0 l/m 7,0 km/h (2 Bft) NO22.5 55 0 min 5,99 klux 0,00 min 0,9 C 0,4 C
31.10.2008 10:30 1,2 C 1,6 C 99 % 1001 hPa 0,0 l/m 6,7 km/h (2 Bft) NO22.5 55 0 min 5,90 klux 0,00 min 1,1 C 0,9 C
31.10.2008 10:45 1,3 C 1,8 C 99 % 1001 hPa 0,9 l/m 7,5 km/h (2 Bft) NO22.5 55 0 min 4,99 klux 15,00 min 1,2 C 0,2 C
31.10.2008 10:59 1,5 C 2,1 C 99 % 1002 hPa 0,3 l/m 5,9 km/h (2 Bft) NO 55 0 min 6,03 klux 14,00 min 1,4 C 1,5 C
31.10.2008 11:14 1,9 C 2,5 C 99 % 1002 hPa 0,0 l/m 2,8 km/h (1 Bft) N-NO 30 0 min 5,94 klux 0,00 min 1,8 C 1,9 C
31.10.2008 11:29 2,2 C 2,7 C 99 % 1002 hPa 0,0 l/m 0,0 km/h (0 Bft) N-NO 30 0 min 4,91 klux 0,00 min 2,1 C 2,2 C
31.10.2008 11:45 2,7 C 3,0 C 99 % 1003 hPa 0,0 l/m 3,8 km/h (1 Bft) O45 95 0 min 5,30 klux 0,00 min 2,6 C 2,7 C
31.10.2008 12:00 3,3 C 3,5 C 99 % 1003 hPa 0,0 l/m 12,9 km/h (3 Bft) S-SO22.5 160 0 min 6,35 klux 0,00 min 3,2 C -1,8 C
31.10.2008 12:15 3,7 C 3,7 C 99 % 1003 hPa 0,0 l/m 13,6 km/h (3 Bft) S22.5 175 0 min 8,13 klux 0,00 min 3,6 C -1,7 C
31.10.2008 12:30 3,9 C 4,1 C 99 % 1003 hPa 0,0 l/m 16,8 km/h (3 Bft) S22.5 180 0 min 8,21 klux 0,00 min 3,8 C -3,2 C
31.10.2008 12:44 4,2 C 4,3 C 99 % 1003 hPa 0,0 l/m 17,3 km/h (3 Bft) S22.5 175 0 min 9,3 klux 0,00 min 4,1 C -3,0 C
31.10.2008 12:59 4,3 C 4,4 C 99 % 1003 hPa 0,0 l/m 18,5 km/h (3 Bft) S22.5 185 0 min 7,00 klux 0,00 min 4,2 C -3,4 C
31.10.2008 13:14 4,3 C 4,5 C 99 % 1003 hPa 0,0 l/m 15,2 km/h (3 Bft) S45 190 0 min 7,88 klux 0,00 min 4,2 C -1,9 C
31.10.2008 13:30 4,7 C 4,9 C 99 % 1003 hPa 0,0 l/m 18,5 km/h (3 Bft) S22.5 170 0 min 15,3 klux 0,00 min 4,6 C -2,9 C
31.10.2008 13:45 4,8 C 4,9 C 99 % 1003 hPa 0,0 l/m 13,4 km/h (3 Bft) S45 180 0 min 7,04 klux 0,00 min 4,7 C -0,3 C
31.10.2008 14:00 4,7 C 4,9 C 99 % 1003 hPa 0,0 l/m 16,1 km/h (3 Bft) S22.5 170 0 min 4,54 klux 0,00 min 4,6 C -1,8 C
31.10.2008 14:15 4,9 C 5,0 C 99 % 1003 hPa 0,0 l/m 12,8 km/h (3 Bft) S-SW45 195 0 min 6,61 klux 0,00 min 4,8 C 0,2 C
31.10.2008 14:29 5,2 C 5,2 C 99 % 1003 hPa 0,0 l/m 8,1 km/h (2 Bft) S 170 0 min 7,47 klux 0,00 min 5,1 C 3,7 C
31.10.2008 14:44 5,3 C 5,3 C 98 % 1003 hPa 0,0 l/m 10,1 km/h (2 Bft) S 170 0 min 4,72 klux 0,00 min 5,0 C 2,3 C
31.10.2008 14:59 5,3 C 5,3 C 98 % 1003 hPa 0,0 l/m 11,1 km/h (2 Bft) S22.5 170 0 min 3,99 klux 0,00 min 5,0 C 1,7 C
31.10.2008 15:14 5,4 C 5,4 C 99 % 1003 hPa 0,0 l/m 12,1 km/h (2 Bft) S-SO22.5 165 0 min 5,13 klux 0,00 min 5,3 C 1,2 C
31.10.2008 15:30 5,5 C 5,6 C 99 % 1003 hPa 0,0 l/m 10,7 km/h (2 Bft) S-SO22.5 165 0 min 8,86 klux 0,00 min 5,4 C 2,2 C
31.10.2008 15:45 5,6 C 5,7 C 98 % 1003 hPa 0,0 l/m 13,1 km/h (3 Bft) S-SO22.5 165 0 min 7,54 klux 0,00 min 5,3 C 0,8 C
31.10.2008 16:00 5,6 C 5,5 C 98 % 1004 hPa 0,0 l/m 11,0 km/h (2 Bft) S45 180 0 min 1,91 klux 0,00 min 5,3 C 2,1 C
31.10.2008 16:15 5,5 C 5,5 C 98 % 1004 hPa 0,0 l/m 9,2 km/h (2 Bft) S22.5 170 0 min 1,32 klux 0,00 min 5,2 C 3,2 C
31.10.2008 16:29 5,4 C 5,4 C 98 % 1004 hPa 0,0 l/m 6,9 km/h (2 Bft) S22.5 170 0 min 1,23 klux 0,00 min 5,1 C 5,0 C
31.10.2008 16:44 5,4 C 5,3 C 98 % 1004 hPa 0,0 l/m 7,3 km/h (2 Bft) S22.5 170 0 min 1,43 klux 0,00 min 5,1 C 4,6 C
31.10.2008 16:59 5,3 C 5,2 C 98 % 1004 hPa 0,0 l/m 3,3 km/h (1 Bft) S-SO 165 0 min 764 lux 0,00 min 5,0 C 5,3 C
31.10.2008 17:15 5,2 C 5,0 C 98 % 1004 hPa 0,0 l/m 4,0 km/h (1 Bft) S-SO 165 0 min 346 lux 0,00 min 4,9 C 5,2 C
31.10.2008 17:30 4,9 C 4,8 C 98 % 1004 hPa 0,0 l/m 4,8 km/h (1 Bft) S-SO 160 0 min 243 lux 0,00 min 4,6 C 4,9 C
31.10.2008 17:45 4,7 C 4,4 C 97 % 1004 hPa 0,0 l/m 8,5 km/h (2 Bft) S-SO22.5 165 0 min 38 lux 0,00 min 4,3 C 2,9 C
31.10.2008 18:00 4,4 C 4,0 C 97 % 1004 hPa 0,0 l/m 7,4 km/h (2 Bft) S-SO 155 0 min 4 lux 0,00 min 4,0 C 3,5 C
31.10.2008 18:15 4,3 C 3,7 C 98 % 1004 hPa 0,0 l/m 0,4 km/h (0 Bft) S-SO 165 0 min 0 lux 0,00 min 4,0 C 4,3 C
31.10.2008 18:29 3,9 C 3,3 C 97 % 1005 hPa 0,0 l/m 0,2 km/h (0 Bft) S-SO 165 0 min 0 lux 0,00 min 3,5 C 3,9 C
31.10.2008 18:44 3,9 C 3,2 C 98 % 1005 hPa 0,0 l/m 3,0 km/h (1 Bft) S-SO 165 0 min 0 lux 0,00 min 3,6 C 3,9 C
31.10.2008 18:59 3,9 C 3,2 C 98 % 1005 hPa 0,0 l/m 7,1 km/h (2 Bft) NO67.5 55 0 min 0 lux 0,00 min 3,6 C 3,3 C
31.10.2008 19:15 3,9 C 3,0 C 98 % 1005 hPa 0,0 l/m 1,8 km/h (1 Bft) O-NO22.5 70 0 min 0 lux 0,00 min 3,6 C 3,9 C
31.10.2008 19:30 3,9 C 3,0 C 99 % 1005 hPa 0,0 l/m 10,8 km/h (2 Bft) NO22.5 40 0 min 0 lux 0,00 min 3,8 C 0,3 C
31.10.2008 19:45 3,7 C 2,6 C 99 % 1005 hPa 0,0 l/m 4,6 km/h (1 Bft) NO 50 0 min 0 lux 0,00 min 3,6 C 3,7 C
31.10.2008 20:00 3,4 C 2,6 C 99 % 1005 hPa 0,0 l/m 0,0 km/h (0 Bft) NO 40 0 min 0 lux 0,00 min 3,3 C 3,4 C
31.10.2008 20:14 3,6 C 2,4 C 99 % 1005 hPa 0,0 l/m 8,3 km/h (2 Bft) N-NO22.5 30 0 min 0 lux 0,00 min 3,5 C 1,9 C
31.10.2008 20:29 3,5 C 2,3 C 99 % 1005 hPa 0,0 l/m 7,2 km/h (2 Bft) NO22.5 35 0 min 0 lux 0,00 min 3,4 C 2,8 C
31.10.2008 20:44 3,7 C 2,6 C 99 % 1005 hPa 0,0 l/m 9,8 km/h (2 Bft) N-NO22.5 20 0 min 0 lux 0,00 min 3,6 C 0,8 C
31.10.2008 21:00 4,1 C 3,2 C 99 % 1005 hPa 0,0 l/m 9,8 km/h (2 Bft) N-NO22.5 25 0 min 0 lux 0,00 min 4,0 C 1,2 C
31.10.2008 21:15 4,3 C 3,7 C 99 % 1005 hPa 0,0 l/m 6,1 km/h (2 Bft) NO22.5 40 0 min 0 lux 0,00 min 4,2 C 4,3 C
31.10.2008 21:30 4,3 C 4,1 C 99 % 1005 hPa 0,0 l/m 9,2 km/h (2 Bft) N-NO22.5 15 0 min 0 lux 0,00 min 4,2 C 1,9 C
31.10.2008 21:45 4,3 C 4,2 C 99 % 1005 hPa 0,0 l/m 7,3 km/h (2 Bft) O22.5 80 0 min 0 lux 0,00 min 4,2 C 3,5 C
31.10.2008 21:59 4,3 C 4,3 C 99 % 1005 hPa 0,0 l/m 12,7 km/h (3 Bft) NO22.5 50 0 min 0 lux 0,00 min 4,2 C -0,5 C
31.10.2008 22:14 4,3 C 4,3 C 99 % 1005 hPa 0,0 l/m 11,0 km/h (2 Bft) O-NO22.5 65 0 min 0 lux 0,00 min 4,2 C 0,6 C
31.10.2008 22:29 4,4 C 4,4 C 99 % 1005 hPa 0,0 l/m 10,5 km/h (2 Bft) NO22.5 50 0 min 0 lux 0,00 min 4,3 C 1,1 C
31.10.2008 22:44 4,3 C 4,4 C 99 % 1006 hPa 0,0 l/m 8,9 km/h (2 Bft) O-NO22.5 60 0 min 0 lux 0,00 min 4,2 C 2,1 C
31.10.2008 23:00 4,3 C 4,4 C 99 % 1005 hPa 0,0 l/m 10,4 km/h (2 Bft) NO22.5 55 0 min 0 lux 0,00 min 4,2 C 1,0 C
31.10.2008 23:15 4,3 C 4,4 C 99 % 1005 hPa 0,0 l/m 8,6 km/h (2 Bft) NO22.5 45 0 min 0 lux 0,00 min 4,2 C 2,4 C
31.10.2008 23:30 4,2 C 4,3 C 99 % 1005 hPa 0,0 l/m 10,3 km/h (2 Bft) O-NO22.5 60 0 min 0 lux 0,00 min 4,1 C 1,0 C
31.10.2008 23:45 4,2 C 4,3 C 99 % 1005 hPa 0,0 l/m 7,0 km/h (2 Bft) O-NO 60 0 min 0 lux 0,00 min 4,1 C 3,7 C
31.10.2008 23:59 4,2 C 4,3 C 99 % 1005 hPa 0,0 l/m 9,3 km/h (2 Bft) NO22.5 40 0 min 0 lux 0,00 min 4,1 C 1,7 C
_ Min-Zeit 07:44 07:44 00:00 00:00 - 11:29 - - - - - 07:44 03:15
Minimum _ 0,1 C 0,0 C 97 % 998 hPa - 0,0 km/h (0 Bft) - - - - - -0,2 C -4,9 C
_ Max-Zeit 15:45 15:45 08:15 22:44 10:45 12:59 - - 00:00 13:30 00:00 15:30 16:59
Maximum _ 5,6 C 5,7 C 99 % 1006 hPa 0,9 l/m 18,5 km/h
S (3 Bft)
- - 0 min 15,3 klux 15,00 min 5,4 C 5,3 C
Durchschnitt _ 2,8 C 2,6 C 98 % 1002 hPa #3,0 l/m 8,5 km/h (2 Bft) NO - #0 min. 2,06 klux #1:58 h 2,5 C 0,5 C